Location: Houston
(29.7630°N, 95.3630°W)
Time: 08:20:44
(UTC-05:00)

ISS - All Passes

Search period start: 20 April 2014 00:00
Search period end: 30 April 2014 00:00
Orbit: 414 x 419 km, 51.6° (Epoch: 20 April)

Date Brightness Start Highest point End Pass type
(mag) Time Alt. Az. Time Alt. Az. Time Alt. Az.
20 Apr - 00:31:18 10° W 00:33:08 14° SW 00:34:58 10° SSW night (unlit)
20 Apr - 13:55:49 10° S 13:58:18 20° SE 14:00:49 10° ENE daylight
20 Apr - 15:32:05 10° W 15:34:54 25° NW 15:37:44 10° NNE daylight
20 Apr - 22:05:36 10° N 22:08:07 19° NE 22:10:37 10° E visible
20 Apr - 23:41:56 10° WNW 23:44:50 27° SW 23:47:44 10° S night (unlit)
21 Apr - 14:43:08 10° WSW 14:46:21 47° NW 14:49:36 10° NNE daylight
21 Apr - 21:18:07 10° N 21:19:26 12° NE 21:20:44 10° ENE visible
21 Apr - 22:53:07 10° NW 22:56:25 59° SW 22:59:42 10° SSE visible
22 Apr - 13:54:30 10° SW 13:57:49 80° SE 14:01:09 10° NE daylight
22 Apr - 22:04:34 10° NW 22:07:53 63° NE 22:11:12 10° SE visible
23 Apr - 13:06:14 10° SSW 13:09:18 36° SE 13:12:23 10° ENE daylight
23 Apr - 14:43:57 10° WNW 14:46:06 16° NW 14:48:16 10° N daylight
23 Apr - 21:16:13 10° NNW 21:19:14 31° NE 21:22:15 10° ESE visible
23 Apr - 22:53:40 10° W 22:55:44 16° SW 22:57:48 10° SSW visible
24 Apr - 12:18:28 10° S 12:20:47 18° SE 12:23:06 10° E daylight
24 Apr - 13:54:25 10° WSW 13:57:19 27° NW 14:00:14 10° NNE daylight
24 Apr - 20:28:05 10° N 20:30:27 18° NE 20:32:49 10° E visible
24 Apr - 22:04:13 10° WNW 22:07:12 31° SW 22:10:11 10° SSE visible
25 Apr - 13:05:18 10° WSW 13:08:34 53° NW 13:11:50 10° NE daylight
25 Apr - 19:40:39 10° NNE 19:41:32 11° NNE 19:42:25 10° NE daylight
25 Apr - 21:15:14 10° NW 21:18:34 68° SW 21:21:52 10° SE visible
26 Apr - 12:16:32 10° SW 12:19:49 69° SE 12:23:08 10° NE daylight
26 Apr - 13:56:05 10° NW 13:56:51 11° NNW 13:57:37 10° NNW daylight
26 Apr - 20:26:31 10° NW 20:29:48 54° NE 20:33:04 10° ESE visible
27 Apr - 11:28:07 10° SSW 11:31:05 31° SE 11:34:04 10° ENE daylight
27 Apr - 13:05:30 10° W 13:07:50 18° NW 13:10:09 10° N daylight
27 Apr - 19:37:59 10° NNW 19:40:55 28° NE 19:43:49 10° ESE daylight
27 Apr - 21:15:08 10° W 21:17:26 18° SW 21:19:44 10° S visible
28 Apr - 10:40:18 10° SSE 10:42:22 16° SE 10:44:25 10° E daylight
28 Apr - 12:15:51 10° WSW 12:18:50 31° NW 12:21:50 10° NNE daylight
28 Apr - 18:49:43 10° N 18:51:53 16° NE 18:54:03 10° ENE daylight
28 Apr - 20:25:35 10° WNW 20:28:40 35° SW 20:31:45 10° SSE visible
29 Apr - 11:26:35 10° SW 11:29:52 63° NW 11:33:10 10° NE daylight
29 Apr - 19:36:28 10° NW 19:39:48 80° SW 19:43:07 10° SE daylight
